User: anonymous   Login
Location: *
(17.3280°S, 114.7300°W)
Time: 17:22:15
(UTC+00:00)
Language:

Lacrosse 5 rocket - Orbit

View from above orbital plane
View from above orbital plane
View from above satellite
View from above satellite

Ground track
Ground track

The orbit data is extracted from the following two-line orbital elements,

1 28647U 05016B   20297.39451224 +.00000171 +00000-0 +28131-4 0  9997
2 28647 056.9969 080.1357 0126337 016.5602 343.9504 15.06099563079232
Epoch (UTC): 23 October 2020 09:28:05
Eccentricity: 0.0126337
inclination: 56.9969°
perigee height: 460 km
apogee height: 635 km
right ascension of ascending node: 80.1357°
argument of perigee: 16.5602°
revolutions per day: 15.06099563
mean anomaly at epoch: 343.9504°
orbit number at epoch: 7923

The dashed part of the orbit path shows where the satellite is in the earth's shadow,  

DLR